Location: Barcelona
(41.3830°N, 2.1830°E)
Time: 13:34:52
(UTC+02:00)

ISS - Pass Details

Date: 01 April 2020
Orbit: 417 x 419 km, 51.6° (Epoch: 31 May)

Event Time Altitude Azimuth Distance (km) Brightness Sun altitude
Rises 20:52:45 0° 309° (NW) 2,367 1.4 -7.4°
Reaches altitude 10° 20:55:14 10° 327° (NNW) 1,500 -0.2 -7.9°
Maximum altitude 20:57:48 20° 17° (NNE) 1,033 -1.8 -8.4°
Drops below altitude 10° 21:00:22 10° 67° (ENE) 1,495 -1.4 -8.8°
Enters shadow 21:00:44 - 71° (ENE) 1,606 -1.3 -8.9°
